1st Responders/1st Detectors/Storm Spotters Weather Summary for Boone County, KY

Forecast Maps


Reg. NEXRAD Animation


National Fire Danger: Day 1 & 2 Map

Current NWS Watch/Warnings

SPC Convective Day 1 Outlook


Day 2 Outlook

(Click images to enlarge|Page will refresh every 5 minutes)
UK Ag. Weather Center Desktop Severe Weather Service[HERE]
Boone County, KY Hazardous Weather Outlook Webcast
(9 AM to 9 PM Mon-Fri)
[Fast]
[Dial-up]


UKAWC 1st Detectors/1st Responders Precision Weather Forecast For BOONE County, Kentucky
(based on the NWS County Digital Forecast)

ISSUED AT 20:00 UTC ON SATURDAY JAN 20 2018
DAY SATURDAY
EDT 3HR 5P 6P 7P
MAX/MIN -- -- 45°
TEMP 45° 43° 43°
SKY COVER 89% 91% 92%
Clouds
DEW PT 36° 36° 36°
RH 70% 73% 76%
POP 12HR -- -- --
RAIN/SNOW (liq.equ) -- -- --
SNOWFALL -- -- --
WIND SPEED(MPH) 8 8 7
WIND Gust(MPH) 14 15 15
WIND DIR SW SW SW
DEW Lgt Dew -- --
HeatIndex 40 38 38
Snow -- -- --
Rain -- -- Slight Chance
Rain Showers -- -- --
WIND CHILL 41° 38° 39°
SPRAY COND
DRY COND
LIVESTOCK COLDSTRESS



DAY SUNDAY MONDAY TUESDAY WEDNESDAY THURSDAY FRIDAY
EDT 6HR 8P 9P 10P 11P MIDN 1A 2A 3A 4A 5A 6A 7A 8A 9A 10A 11A NOON 1P 2P 3P 4P 5P 6P 7P 8P 9P 10P 11P MIDN 1A 2A 3A 4A 5A 8A 11A 2P 5P 8P 2A 8A 2P 8P 2A 8A 2P 8P 2A 8A 2P 8P 2A 8A 2P 8P
MAX/MIN -- -- -- -- -- -- -- -- -- -- -- -- 38° -- -- -- -- -- -- -- -- -- -- 49° -- -- -- -- -- -- -- -- -- -- 43° -- -- 52° -- -- 34° 38° -- -- 25° 40° -- -- 25° 45° -- -- 31° 49° --
TEMP 41° 41° 41° 41° 41° 41° 41° 41° 41° 41° 40° 40° 40° 40° 40° 41° 43° 45° 47° 49° 49° 49° 49° 47° 47° 47° 47° 47° 45° 47° 47° 45° 47° 47° 47° 50° 52° 50° 45° 38° 34° 38° 34° 29° 25° 38° 34° 29° 25° 41° 40° 34° 31° 47° 45°
SKY COVER 93% 94% 95% 97% 96% 96% 99% 98% 97% 98% 96% 95% 95% 95% 95% 96% 95% 94% 93% 92% 90% 89% 87% 85% 85% 85% 86% 88% 90% 91% 93% 92% 91% 90% 82% 86% 89% 91% 92% 65% 83% 75% 61% 40% 32% 30% 37% 35% 33% 36% 31% 33% 37% 54% 72%
Clouds
DEW PT 36° 36° 38° 38° 38° 38° 38° 38° 38° 38° 38° 38° 38° 38° 40° 40° 43° 43° 45° 45° 45° 45° 45° 45° 45° 45° 45° 45° 43° 43° 43° 43° 43° 43° 43° 45° 47° 47° 43° 34° 31° 29° 27° 25° 22° 27° 25° 25° 22° 27° 27° 27° 27° 34° 36°
RH 82% 82% 85% 85% 86% 85% 88% 88% 88% 89% 92% 92% 88% 92% 96% 96% 95% 92% 89% 85% 89% 86% 89% 89% 92% 92% 92% 93% 92% 89% 88% 92% 89% 85% 82% 80% 83% 86% 92% 85% 89% 72% 74% 88% 84% 64% 68% 84% 87% 54% 61% 72% 81% 63% 70%
POP 12HR 15% -- -- -- -- -- -- -- -- -- -- -- 34% -- -- -- -- -- -- -- -- -- -- -- 34% -- -- -- -- -- -- -- -- -- 36% -- -- -- 86% -- 48% -- 22% -- 6% -- 5% -- 6% -- 7% -- 9% -- 33%
RAIN/SNOW (liq.equ) 0.01in -- -- -- -- -- 0.01in -- -- -- -- -- 0.02in -- -- -- -- -- 0.03in -- -- -- -- -- 0.01in -- -- -- -- -- 0.01in -- -- -- 0.02in -- 0.10in -- 0.17in -- -- -- -- -- -- -- -- -- -- -- -- -- -- -- --
SNOWFALL 0in -- -- -- -- -- 0in -- -- -- -- -- 0in -- -- -- -- -- 0in -- -- -- -- -- 0in -- -- -- -- -- 0in -- -- -- 0in -- 0in -- 0in -- -- -- -- -- -- -- -- -- -- -- -- -- -- -- --
WIND SPEED(MPH) 7 7 7 7 7 7 7 7 7 7 6 6 7 7 7 7 9 9 10 10 10 10 9 9 7 7 7 7 7 7 7 7 7 8 9 10 13 14 14 13 13 15 9 7 5 7 6 5 2 6 7 5 7 8 7
WIND DIR SW SW SW SW SW SW SW SW S S S S S S S S S S S S S S S S S S S S S S S S S S S S S S SW SW SW W W W W W W W SW SW S SE S S S
HeatIndex 36 37 37 37 37 37 37 37 37 37 37 37 36 36 36 36 38 45 47 49 49 49 49 47 47 47 47 47 45 47 47 45 47 47 47 50 52 50 45 31 25 29 25 21 20 32 29 23 21 38 35 31 25 47 45
Snow -- -- -- -- -- -- -- -- -- -- -- -- -- -- -- -- -- -- -- -- -- -- -- -- -- -- -- -- -- -- -- -- -- -- -- -- -- -- -- -- Slight Chance -- -- -- -- -- -- -- -- -- -- -- -- -- --
Rain Slight Chance Slight Chance Chance Chance Chance Chance Chance Chance Chance Chance Chance Chance Chance Chance Chance Chance Chance Chance Chance Chance Chance Chance Chance Chance Chance Chance Chance Chance Slight Chance Slight Chance -- -- -- -- -- -- -- -- -- -- -- -- -- -- -- -- -- -- -- -- -- -- -- -- Chance
Rain Showers -- -- -- -- -- -- -- -- -- -- -- -- -- -- -- -- -- -- -- -- -- -- -- -- -- -- -- -- -- -- -- -- -- -- Chance Chance Definite Definite Chance Chance -- -- -- -- -- -- -- -- -- -- -- -- -- -- --
WIND CHILL 36° 36° 36° 36° 36° 36° 36° 36° 36° 36° 36° 36° 35° 35° 35° 36° 38° 40° -- -- -- -- -- -- -- -- -- -- 41° -- -- 41° -- -- -- -- -- -- 39° 30° 25° 29° 27° 22° 19° 33° 29° 24° -- 37° 35° 30° 25° -- 41°
SPRAY COND
DRY COND
LIVESTOCK COLDSTRESS

Click on individual weather variable above in left-hand column (ie., TEMP, RH, QPF 12HR) to view state forecast maps






NWS 48 Hr. Forecast Maps,

Regional Hourly Observations For BOONE County, Kentucky
Issued at 300 PM EST SAT JAN 20 2018
NORTHEAST KENTUCKY
  
CITY           SKY/WX    TMP DP  RH WIND       PRES   REMARKS
LEXINGTON      CLOUDY    48  34  58 SW12      30.11F                  
COVINGTON      PTSUNNY   47  32  56 S12       30.06F                  
FRANKFORT      CLOUDY    49  32  52 SW10G20   30.10R                  


Current NOWCAST not available:
Nowcasts are not issued routinely during fair weather. Only when
precipitation or other significant weather is occuring in this county will these
forecasts be issued. Currently, there is no short term forecast in effect.


Fire Weather Forecast For BOONE County, KY
Provided by the National Weather Service:

Issued at: Sat Jan 20 15:05:01 EST 2018

CLOUD COVER                     PCldy       Cloudy       Cloudy
PRECIP TYPE                      None         Rain         Rain
CHANCE PRECIP (%)                   0           30           30
TEMP (24H TREND)              45 (+5)      37 (+7)           50
RH % (24H TREND)              64 (+8)    100 (+24)           80
20FTWND-AM(MPH)                 SW  8                      S  6
20FTWND-PM(MPH)                 SW  7        SW  5         S  7
PRECIP AMOUNT                    0.00         0.03         0.04
PRECIP DURATION                                  2            2
MIXING HGT(FT-AGL)               1820                      1020
TRANSPORT WND (MPH)              W 24                     SW 23
LAL                                 1            1            1
HAINES INDEX                        3            2            2

REMARKS...None.

.FORECAST FOR DAYS 3 THROUGH 7...
.SUNDAY NIGHT...Cloudy. Lows in the mid 40s. South winds around 5 mph. 
.MONDAY...Showers. Highs in the lower 50s. South winds 5 to 10 mph. 
.TUESDAY...Mostly cloudy with rain showers likely. Colder. Lows in the mid
30s. Highs around 40. West winds around 10 mph. 
.WEDNESDAY...Partly cloudy. Lows in the mid 20s. Highs in the lower 40s.
West winds 5 to 10 mph. 
.THURSDAY...Partly cloudy. Lows in the mid 20s. Highs in the mid 40s.
Southwest winds around 5 mph. 
.FRIDAY...Partly cloudy. A chance of rain. Lows in the lower 30s. Highs
around 50. South winds around 5 mph. 

SPC's Fire Weather Web Tool (Excellent!), SPC's Fire Weather Outlooks, NWS Fire Weather WEB, Fire Danger Class Map,
Keetch-Byram Drought Index, ROMAN Web, Haines Index ,
WFAS's 10-hr Dead Fuel Moist., WFAS's 100-hr Dead Fuel Moist., Probablity of Ignition, Visual blackness Map, Palmer Drought Index, HPC's Rainfall Forecast Maps


Hazardous Weather Outlook For BOONE County, Kentucky
510 AM EST Sat Jan 20 2018

 DAY ONE  Today and Tonight.

No hazardous weather is expected at this time.

 DAYS TWO THROUGH SEVEN  Sunday through Friday.

The probability for widespread hazardous weather is low.

 SPOTTER INFORMATION STATEMENT  

Spotter activation is not expected at this time.

Latest BOONE County, Kentucky Watches, Warnings and Advisories.
Additional Drought Info.: UKAWC Drought Page, Kentucky Drought Watch


7-Day Forecast For BOONE County, KY

TONIGHT
Cloudy. A slight chance of rain this evening, then a chance of rain after midnight. Mild. Lows in the upper 30s. Southwest winds 5 to 10 mph. Chance of rain 30 percent.

SUNDAY
Cloudy with a 40 percent chance of rain. Mild. Highs in the lower 50s. South winds 5 to 10 mph.

SUNDAY NIGHT
Mostly cloudy. A chance of rain, mainly in the evening. Mild. Near steady temperatures in the upper 40s. South winds 5 to 10 mph. Chance of rain 30 percent.

MONDAY
Showers, mild. Highs in the mid 50s. South winds 10 to 15 mph with gusts up to 25 mph. Chance of rain 80 percent.

MONDAY NIGHT
Mostly cloudy with a 50 percent chance of showers. Mild. Lows in the upper 30s. Southwest winds around 15 mph.

TUESDAY
Mostly cloudy. A chance of rain showers in the morning. Colder with highs in the upper 30s. Chance of rain 30 percent.

TUESDAY NIGHT
Partly cloudy. Lows in the mid 20s.

WEDNESDAY
Partly cloudy in the morning, then clearing. Highs around 40.

WEDNESDAY NIGHT
Mostly clear. Lows in the mid 20s.

THURSDAY
Mostly sunny. Highs in the lower 40s.

THURSDAY NIGHT
Mostly clear. Lows in the upper 20s.

FRIDAY
Mostly sunny in the morning, then becoming partly cloudy. Mild. Highs in the lower 50s.

FRIDAY NIGHT
Partly cloudy. A chance of showers after midnight. Mild. Lows in the upper 30s. Chance of rain 30 percent.

SATURDAY
Mostly cloudy with a 50 percent chance of showers. Mild. Highs in the lower 50s.

Ag Weather Center, Department of Biosystems & Agricultural Engineering, University of Kentucky